Location: Borbetomagus
(49.6328°N, 8.3592°E)
Time: 21:53:54
(UTC+00:00)

Meteor 2-13 Rocket - Pass Details

Date: 19 May 2025
Orbit: 934 x 958 km, 82.5° (Epoch: 15 June)

Event Time Altitude Azimuth Distance (km) Brightness Sun altitude
Exits shadow 22:19:06 31° 178° (S) 1,599 5.1 -19.0°
Maximum altitude 22:22:11 78° 97° (E) 982 4.4 -19.1°
Drops below altitude 10° 22:28:19 10° 12° (NNE) 2,687 7.8 -19.3°
Sets 22:30:49 0° 12° (NNE) 3,632 8.7 -19.4°
